Location: Unspecified
(42.1900°N, 71.3291°W)
Time: 07:21:57
(UTC-04:00)

ISS - Visible Passes

Search period start: 29 May 2017 00:00
Search period end: 08 June 2017 00:00
Orbit: 402 x 408 km, 51.6° (Epoch: 29 May)

Date Brightness Start Highest point End Pass type
(mag) Time Alt. Az. Time Alt. Az. Time Alt. Az.
29 May -1.5 01:04:35 10° NW 01:06:24 24° NNW 01:06:24 24° NNW visible
29 May -1.6 20:57:50 10° W 21:00:46 28° NNW 21:03:42 10° NE visible
29 May -0.7 22:35:56 10° NW 22:38:03 16° N 22:40:10 10° NE visible
30 May -1.5 00:12:40 10° NW 00:15:24 23° NNE 00:15:37 23° NNE visible
30 May -0.8 21:43:27 10° NW 21:45:43 17° N 21:47:59 10° NE visible
30 May -1.1 23:20:41 10° NW 23:23:08 19° NNE 23:24:58 13° NE visible
31 May -1.1 00:56:52 10° NW 00:57:36 16° NW 00:57:36 16° NW visible
31 May -1.0 20:50:53 10° WNW 20:53:25 20° NNW 20:55:57 10° NE visible
31 May -0.9 22:28:36 10° NW 22:30:48 16° N 22:33:01 10° NE visible
01 Jun -1.9 00:04:53 10° NW 00:07:03 30° NNW 00:07:03 30° NNW visible
01 Jun -0.9 21:36:20 10° NW 21:38:27 16° N 21:40:34 10° NE visible
01 Jun -1.9 23:12:55 10° NW 23:15:46 26° NNE 23:16:32 23° NE visible
02 Jun -1.4 22:20:55 10° NW 22:23:28 20° NNE 22:26:01 10° ENE visible
02 Jun -1.8 23:57:05 10° NW 23:58:42 26° NW 23:58:42 26° NW visible
03 Jun -1.1 21:28:50 10° NW 21:31:07 17° N 21:33:24 10° NE visible
03 Jun -2.9 23:05:03 10° NW 23:08:14 44° NNE 23:08:16 44° NNE visible
04 Jun -2.1 22:13:02 10° NW 22:16:00 29° NNE 22:17:51 17° ENE visible
04 Jun -1.4 23:49:25 10° WNW 23:50:30 18° WNW 23:50:30 18° WNW visible
05 Jun -1.6 21:21:02 10° NW 21:23:41 22° NNE 21:26:20 10° ENE visible
05 Jun -3.6 22:57:13 10° WNW 23:00:07 66° WNW 23:00:07 66° WNW visible
06 Jun -3.3 22:05:07 10° NW 22:08:21 53° NNE 22:09:45 29° E visible
06 Jun -0.9 23:42:10 10° W 23:42:24 11° W 23:42:24 11° W visible
07 Jun -2.4 21:13:03 10° NW 21:16:07 33° NNE 21:19:08 10° E visible
07 Jun -2.6 22:49:34 10° WNW 22:52:04 32° WSW 22:52:04 32° WSW visible
